Location: Владивосток
(43.1151°N, 131.8856°E)
Time: 00:30:45
(UTC+10:00)

DMSP 5D-2 F13 DEB - Visible Passes

Search period start: 04 October 2024 00:00
Search period end: 14 October 2024 00:00
Orbit: 775 x 786 km, 98.7° (Epoch: 02 October)

Date Brightness Start Highest point End Pass type
(mag) Time Alt. Az. Time Alt. Az. Time Alt. Az.
04 Oct ? 20:16:50 10° S 20:21:57 66° WSW 20:27:07 10° NNW visible
05 Oct ? 19:44:33 10° SSE 19:49:39 64° ENE 19:54:47 10° N visible
05 Oct ? 21:26:11 10° SW 21:29:21 16° W 21:32:34 10° NW visible
06 Oct ? 19:12:52 10° SE 19:17:27 33° ENE 19:22:04 10° N visible
06 Oct ? 20:52:06 10° SSW 20:56:41 32° W 21:01:18 10° NNW visible
07 Oct ? 20:19:02 10° S 20:24:08 63° WSW 20:29:18 10° NNW visible
08 Oct ? 19:46:36 10° SSE 19:51:43 67° ENE 19:56:52 10° N visible
08 Oct ? 21:28:24 10° SW 21:31:26 16° W 21:34:30 10° NW visible
09 Oct ? 19:14:46 10° SE 19:19:24 34° ENE 19:24:03 10° N visible
09 Oct ? 20:54:06 10° SSW 20:58:39 31° W 21:03:13 10° NW visible
10 Oct ? 20:20:53 10° S 20:25:58 61° WSW 20:31:07 10° NNW visible
11 Oct ? 19:48:18 10° SSE 19:53:25 69° ENE 19:58:35 10° N visible
11 Oct ? 21:30:14 10° SW 21:33:10 15° W 21:36:07 10° NW visible
12 Oct ? 19:16:21 10° SE 19:21:00 35° ENE 19:25:41 10° N visible
12 Oct ? 20:55:46 10° SSW 21:00:15 30° W 21:04:47 10° NW visible
13 Oct ? 20:22:23 10° S 20:27:28 59° W 20:32:35 10° NNW visible
